This demonstration page uses our WeatherBlox Daily Observations layout. Learn more.

Left ArrowRight Arrow

Hourly Observations for January 6, 2015

Temp ( °F °C ) Dew Point ( °F °C ) Humidity (%) Winds ( mph kmh ) Pressure ( in mb ) Visibility ( mi km ) Precip ( " mm )
12:51 am 00:51 Clear 42 5.6 26 -3.3 53 53 ESE 9 15 30.34 1028 10 16 N/A
1:51 am 01:51 Clear 43 6.1 26 -3.3 51 51 E 12 19 30.34 1028 10 16 N/A
2:51 am 02:51 Clear 42 5.6 24 -4.4 49 49 ESE 12 19 30.35 1028 10 16 N/A
3:51 am 03:51 Clear 40 4.4 24 -4.4 53 53 SSE 10 17 30.35 1028 10 16 N/A
4:51 am 04:51 Clear 38 3.3 24 -4.4 57 57 SSE 12 19 30.35 1028 10 16 N/A
5:51 am 05:51 Clear 42 5.6 23 -5 47 47 SE 18 30 30.35 1028 10 16 N/A
6:51 am 06:51 Clear 42 5.6 23 -5 47 47 ESE 15 24 30.37 1029 10 16 N/A
7:51 am 07:51 Sunny 39 3.9 23 -5 53 53 SE 13 20 30.40 1029 10 16 N/A
8:51 am 08:51 Sunny 44 6.7 25 -3.9 47 47 SSE 12 19 30.42 1030 10 16 N/A
9:51 am 09:51 Sunny 47 8.3 26 -3.3 44 44 SE 12 19 30.42 1030 10 16 N/A
10:51 am 10:51 Sunny 52 11.1 27 -2.8 38 38 SE 10 17 30.38 1029 10 16 N/A
11:51 am 11:51 Sunny 57 13.9 27 -2.8 32 32 SE 7 11 30.33 1027 10 16 N/A
12:51 pm 12:51 Sunny 60 15.6 26 -3.3 27 27 SE 8 13 30.29 1026 10 16 N/A
1:51 pm 13:51 Sunny 63 17.2 22 -5.6 21 21 VRB 5 7 30.25 1024 10 16 N/A
2:51 pm 14:51 Sunny 64 17.8 22 -5.6 20 20 SSE 7 11 30.24 1024 10 16 N/A
3:51 pm 15:51 Sunny 65 18.3 24 -4.4 21 21 SE 6 9 30.23 1024 10 16 N/A
4:51 pm 16:51 Sunny 63 17.2 25 -3.9 24 24 S 6 9 30.24 1024 10 16 N/A
5:51 pm 17:51 Clear 55 12.8 27 -2.8 34 34 SE 3 6 30.25 1024 10 16 N/A
6:51 pm 18:51 Clear 51 10.6 27 -2.8 39 39 ESE 8 13 30.26 1025 10 16 N/A
7:51 pm 19:51 Clear 48 8.9 27 -2.8 44 44 SE 6 9 30.28 1025 10 16 N/A
8:51 pm 20:51 Clear 46 7.8 27 -2.8 47 47 SE 6 9 30.28 1026 10 16 N/A
9:51 pm 21:51 Clear 46 7.8 28 -2.2 50 50 SE 10 17 30.28 1025 10 16 N/A
10:51 pm 22:51 Clear 47 8.3 28 -2.2 48 48 SE 9 15 30.27 1025 10 16 N/A
11:51 pm 23:51 Clear 47 8.3 27 -2.8 46 46 SSE 9 15 30.27 1025 10 16 N/A

Powered by AerisWeather